XTAR-EUR

导读

XTAR-EUR是由美国发射于2005年2月12日的商用X波段通信卫星,定位于东经29度地球同步轨道,同年4月正式投入服务。它覆盖范围从巴西东部经大西洋、欧洲、非洲、中东延伸至新加坡,配备2个全球波束与4个可控点波束,可灵活调整覆盖区域,能为美军侦察任务等政府及军事用户提供高带宽X波段通信服务,支持多平台数据传输,兼容现有终端设备,具备较强的部署灵活性。

Basic Information
目录编号:
28542
目录名称:
XTAR-EUR
国际标识:
2005-005A
轨道中心:
EARTH
卫星名称:
XTAR-EUR
卫星全名:
--
卫星状态:
在轨 (已飞行7795 天)
发射日期:
2005-02-12 UTC
国别 :
美国 (US)
星等 :
--
Orbit Information
数据来源 国际轨道数据 AOE轨道数据
星历时间 2026-06-16T13:56:46+0800
1天前
查看轨道信息
2026-06-17T10:00:00+0800
21小时前
查看轨道信息
半长轴 42526.618km 42526.618km
偏心率 0.0003463 0.0003462
轨道倾角 4.340° 4.342°
近地点辐角 354.229° 354.208°
升交点赤经 76.787° 76.780°
平近点角 5.420° 303.237°
近地点 36133.754km 36133.758km
远地点 36163.208km 36163.204km
周期 1454.625分钟 1454.625分钟
每日圈数 0.989946 0.989946
Detailed Information
使用方式:
暂无
2D Orbit Map
3D Orbit Map
Orbit Altitude Analysis Chart
Orbit Inclination Analysis Chart
Orbit Comprehensive Analysis Chart
View Comprehensive Chart